Flag for France Weather past 2 weeks in Reims, France

Now
64 °F

Passing clouds.


Feels Like: 64 °F
Forecast: 46 / 69 °F
Wind: 9 mph from Southwest

Location: Chalons-Vatry

Current Time: Aug 21, 2014 at 2:40:46 PM

Latest Report: Aug 21, 2014 at 2:00 PM


Visibility: N/A

Pressure: 30.09 "Hg

Humidity: 56%

Dew point: 48 °F

Location of ReimsLocation

Historic Weather in Reims — Graph

°F

Reims temperature yesterday

Maximum temperature yesterday: 68 °F (at 4:00 PM)
Minimum temperature yesterday: 50 °F (at 6:30 AM)
Average temperature yesterday: 59 °F

Past Weeks' High & Low Weather Summary

 TemperatureHumidityPressure
High79 °F (Aug 7, 3:00 PM)100% (Aug 7, 12:00 AM)30.21 "Hg (Aug 7, 12:00 AM)
Low41 °F (Aug 21, 7:00 AM)46% (Aug 19, 5:00 PM)29.65 "Hg (Aug 10, 4:30 PM)
Average61 °F82%29.94 "Hg
* Reported Aug 6 1:00 PM — Aug 21 1:30 PM, Reims, Weather by CustomWeather, © 2014

Note: Actual official high and low records may vary slightly from our data, if they occured in-between our weather recording intervals... More about our weather records

Advertising

Reims weather history for previous 24 hours

 ConditionsComfort  
Time TempWeatherWind HumidityBarometerVisibility
1:30 PM
Aug 21
64 °FScattered clouds.9 mph52%30.09 "HgN/A
1:00 PM63 °FPassing clouds.7 mph59%30.09 "HgN/A
12:30 PM63 °FPassing clouds.6 mph56%30.09 "HgN/A
12:00 PM61 °FPassing clouds.8 mph59%30.09 "HgN/A
11:30 AM61 °FPassing clouds.6 mph63%30.09 "HgN/A
11:00 AM59 °FClear.7 mph68%30.12 "HgN/A
10:30 AM57 °FClear.6 mph67%30.12 "HgN/A
10:00 AM55 °FClear.6 mph82%30.09 "HgN/A
9:30 AM54 °FClear.5 mph82%30.09 "HgN/A
9:00 AM52 °FClear.6 mph88%30.09 "HgN/A
8:30 AM48 °FClear.5 mph94%30.09 "HgN/A
8:00 AM45 °FClear.3 mph100%30.09 "HgN/A
7:30 AM43 °FClear.5 mph93%30.09 "HgN/A
7:00 AM41 °FClear.5 mph100%30.09 "HgN/A
6:30 AM43 °FClear.5 mph93%30.09 "HgN/A
6:00 AM45 °FClear.5 mph93%30.09 "HgN/A
5:30 AM46 °FClear.6 mph93%30.09 "HgN/A
5:00 AM45 °FClear.5 mph87%30.09 "HgN/A
4:30 AM48 °FClear.7 mph87%30.09 "HgN/A
4:00 AM48 °FClear.7 mph87%30.09 "HgN/A
3:30 AM48 °FClear.7 mph87%30.09 "HgN/A
3:00 AM46 °FClear.5 mph87%30.09 "HgN/A
2:30 AM48 °FClear.7 mph87%30.09 "HgN/A
2:00 AM46 °FClear.3 mph93%30.09 "HgN/A
1:30 AM48 °FClear.6 mph87%30.09 "HgN/A
1:00 AM50 °FClear.7 mph82%30.09 "HgN/A
12:30 AM52 °FClear.8 mph82%30.07 "HgN/A
12:00 AM54 °FClear.7 mph77%30.07 "HgN/A
11:30 PM
Aug 20
54 °FClear.3 mph82%30.07 "HgN/A
11:00 PM55 °FClear.3 mph82%30.07 "HgN/A
10:30 PM55 °FClear.3 mph82%30.07 "HgN/A
10:00 PM57 °FMostly cloudy.8 mph77%30.04 "HgN/A
9:30 PM57 °FClear.8 mph77%30.07 "HgN/A
9:00 PM59 °FClear.12 mph68%30.04 "HgN/A
8:30 PM61 °FClear.14 mph63%30.04 "HgN/A
8:00 PM63 °FClear.5 mph59%30.04 "HgN/A
7:30 PM63 °FClear.6 mph56%30.01 "HgN/A
7:00 PM64 °FClear.7 mph52%30.01 "HgN/A
6:30 PM66 °FClear.8 mph46%30.01 "HgN/A
6:00 PM66 °FClear.9 mph49%30.01 "HgN/A
5:30 PM66 °FClear.8 mph49%30.01 "HgN/A
5:00 PM68 °FClear.7 mph46%30.01 "HgN/A
4:30 PM64 °FClear.10 mph49%30.01 "HgN/A
4:00 PM68 °FClear.7 mph49%30.04 "HgN/A
3:30 PM66 °FScattered clouds.5 mph49%30.04 "HgN/A
3:00 PM66 °FPartly sunny.7 mph52%30.04 "HgN/A
2:30 PM63 °FBroken clouds.7 mph56%30.04 "HgN/A
2:00 PM64 °FScattered clouds.7 mph49%30.04 "HgN/A
Weather by CustomWeather, © 2014

See weather overviewHow to use our weather pages